EW7336 Weather Reports


time (UTC)temp
F
wind
direction
speed
knots
gust
knots
rain 1hr
in
rain 24hr
in
rain mn
in
humidity
%
barometer
mb
20260504214515 75 196 7.8 16.5 0.00 0.02 0.02 46 1005.3
20260504213007 74 178 0.9 3.5 0.00 0.02 0.02 55 1005.2
20260504211504 73 169 0.9 3.5 0.00 0.02 0.02 55 1005.3
20260504210002 73 199 0.9 3.5 0.00 0.02 0.02 54 1005.7
20260504204637 73 202 2.6 5.2 0.00 0.02 0.02 53 1006.3
20260504203054 74 227 4.3 8.7 0.00 0.02 0.02 55 1006.6
20260504201551 73 254 4.3 12.2 0.00 0.02 0.02 55 1006.8
20260504200054 72 225 4.3 10.4 0.00 0.02 0.02 57 1006.8
20260504194550 70 214 3.5 7.0 0.01 0.02 0.02 66 1007.1
20260504193042 67 220 2.6 8.7 0.01 0.02 0.02 72 1007.2
20260504191543 66 216 1.7 5.2 0.02 0.02 0.02 76 1007.4
20260504190045 64 206 1.7 5.2 0.02 0.02 0.02 79 1007.6
20260504184541 63 217 1.7 4.3 0.01 0.01 0.01 78 1007.8
20260504183037 64 211 2.6 10.4 0.01 0.01 0.01 76 1007.1
20260504181538 64 204 2.6 8.7 0.00 0.00 0.00 73 1008.3
20260504180035 65 263 3.5 8.7 0.00 0.00 0.00 69 1008.2
20260504174538 66 183 4.3 16.5 0.00 0.00 0.00 66 1008.0
20260504173034 67 207 6.1 13.9 0.00 0.00 0.00 67 1007.8
20260504171541 67 227 7.0 12.2 0.00 0.00 0.00 65 1007.7
20260504081559 52 196 0.0 4.3 0.00 0.00 0.00 71 1009.7
20260504050024 52 191 0.9 2.6 0.00 0.00 0.00 72 1011.7
20260504044525 52 186 0.9 2.6 0.00 0.00 0.00 71 1011.7
20260504043021 52 187 0.0 2.6 0.00 0.00 0.00 71 1011.8
20260504041517 52 183 0.9 2.6 0.00 0.00 0.00 71 1011.9
20260504040017 53 183 0.0 3.5 0.00 0.00 0.00 70 1012.1
20260504034513 52 182 0.9 2.6 0.00 0.00 0.00 71 1012.3
20260504033013 53 182 0.0 1.7 0.00 0.00 0.00 70 1012.4
20260504031514 53 182 0.0 2.6 0.00 0.00 0.00 69 1012.5
20260504030013 54 182 0.0 2.6 0.00 0.00 0.00 67 1012.6
20260504024511 54 182 0.9 3.5 0.00 0.00 0.00 66 1012.6
20260504023010 54 216 0.9 3.5 0.00 0.00 0.00 67 1012.7
20260504021509 54 217 0.9 2.6 0.00 0.00 0.00 67 1012.6
20260504020015 54 217 0.9 2.6 0.00 0.00 0.00 67 1012.4
20260504014509 54 217 0.0 1.7 0.00 0.00 0.00 66 1012.4
20260504013009 55 218 0.9 3.5 0.00 0.00 0.00 65 1012.4
20260504011507 55 221 1.7 4.3 0.00 0.00 0.00 63 1012.4
20260504010006 56 191 1.7 5.2 0.00 0.00 0.00 62 1012.3
20260504004506 56 201 2.6 7.8 0.00 0.00 0.00 61 1012.1
20260504003003 56 225 4.3 7.8 0.00 0.00 0.00 63 1012.2
20260504001503 56 194 2.6 6.1 0.00 0.00 0.00 63 1012.5
20260503234559 58 198 1.7 5.2 0.00 0.00 0.00 55 1012.5
20260503233057 58 180 1.7 7.0 0.00 0.00 0.00 52 1012.7
20260503231555 59 167 4.3 8.7 0.00 0.00 0.00 49 1012.8
20260503230100 60 186 3.5 8.7 0.00 0.00 0.00 48 1012.8
20260503224551 60 227 3.5 8.7 0.00 0.00 0.00 49 1013.0
20260503223050 60 205 3.5 7.8 0.00 0.00 0.00 50 1013.1
20260503221548 60 182 2.6 7.8 0.00 0.00 0.00 48 1013.1
20260503220051 61 217 3.5 8.7 0.00 0.00 0.00 47 1013.5